This demonstration page uses our WeatherBlox Daily Observations layout. Learn more.

Left ArrowRight Arrow

30.21309, -93.2044

Hourly Observations for July 15, 2021

Temp ( °F °C ) Dew Point ( °F °C ) Humidity (%) Winds ( mph kmh ) Pressure ( in mb ) Visibility ( mi km ) Precip ( " mm )
12:15 am 00:15 Partly Cloudy 77 25.1 75 23.7 92 92 E 7 11 30.15 1021 10 16 0.00 0.00
12:35 am 00:35 Partly Cloudy 77 25 74 23.5 91 91 ESE 7 11 30.14 1021 10 16 0.00 0.00
12:55 am 00:55 Partly Cloudy 77 24.9 74 23.5 92 92 ESE 8 13 30.15 1021 10 16 0.00 0.00
1:15 am 01:15 Clear 77 24.8 74 23.4 92 92 E 5 7 30.15 1021 10 16 0.00 0.00
1:35 am 01:35 Clear 76 24.4 74 23.2 93 93 E 5 7 30.14 1021 10 16 0.00 0.00
1:55 am 01:55 Clear 76 24.4 74 23.1 92 92 ESE 6 9 30.14 1021 10 16 0.00 0.00
2:15 am 02:15 Clear 76 24.2 73 22.9 92 92 E 6 9 30.13 1020 10 16 0.00 0.00
2:35 am 02:35 Clear 75 24.1 73 22.8 92 92 E 5 7 30.13 1020 10 16 0.00 0.00
2:55 am 02:55 Clear 75 23.9 73 22.7 93 93 E 3 6 30.13 1020 10 16 0.00 0.00
3:15 am 03:15 Clear 75 24 73 22.8 93 93 Calm 30.12 1020 10 16 0.00 0.00
3:35 am 03:35 Clear 75 23.9 73 22.8 94 94 Calm 30.12 1020 10 16 0.00 0.00
3:55 am 03:55 Clear with Nearby Thunderstorms 75 23.8 73 22.7 94 94 E 3 6 30.12 1020 10 16 0.00 0.00
4:15 am 04:15 Clear 75 23.7 73 22.6 94 94 E 3 6 30.13 1020 10 16 0.00 0.00
4:35 am 04:35 Clear with Nearby Thunderstorms 74 23.6 73 22.7 95 95 E 3 6 30.13 1020 10 16 0.00 0.00
4:55 am 04:55 Clear 75 23.7 73 22.8 95 95 ESE 3 6 30.13 1020 10 16 0.00 0.00
5:15 am 05:15 Clear 75 23.7 73 22.8 95 95 E 3 6 30.13 1020 10 16 0.00 0.00
5:35 am 05:35 Partly Cloudy 75 23.7 73 22.8 95 95 Calm 30.13 1020 10 16 0.00 0.00
6:00 am 06:00 Partly Cloudy 75 24 73 23 94 94 Calm 30.13 1020 10 16 0.00 0.00
6:50 am 06:50 Partly Cloudy 77 25 73 23 89 89 ENE 6 9 30.14 1021 10 16 0.00 0.00
7:47 am 07:47 Partly Cloudy 77 25 75 24 94 94 ENE 6 9 30.14 1021 10 16 0.00 0.00
8:50 am 08:50 Partly Cloudy 82 28 77 25 84 84 E 6 9 30.14 1021 10 16 0.00 0.00
9:45 am 09:45 Mostly Cloudy 84 29 75 24 74 74 SSE 3 6 30.14 1021 10 16 0.00 0.00
10:53 am 10:53 Mostly Cloudy with Showers 88 31 73 23 62 62 SSE 12 19 30.13 1020 10 16 0.00 0.00
11:55 am 11:55 Mostly Cloudy 88 31 75 24 66 66 ESE 13 20 30.12 1020 10 16 0.00 0.00
12:53 pm 12:53 Mostly Cloudy 84 29 77 25 79 79 ESE 12 19 30.10 1019 10 16 0.00 0.00
1:47 pm 13:47 Mostly Cloudy 90 32 73 23 59 59 SSE 14 22 30.10 1019 10 16 0.00 0.00
2:50 pm 14:50 Partly Cloudy 91 33 75 24 59 59 S 12 19 30.07 1018 10 16 0.00 0.00
3:50 pm 15:50 Mostly Cloudy 88 31 75 24 66 66 S 12 19 30.07 1018 10 16 0.00 0.00
4:50 pm 16:50 Partly Cloudy 86 30 73 23 66 66 SSW 12 19 30.07 1018 10 16 0.00 0.00
5:50 pm 17:50 Partly Cloudy 84 29 75 24 74 74 SW 6 9 30.07 1018 10 16 0.00 0.00
6:50 pm 18:50 Partly Cloudy 82 28 75 24 79 79 S 9 15 30.05 1018 10 16 0.00 0.00
7:50 pm 19:50 Partly Cloudy 82 28 75 24 79 79 S 7 11 30.05 1018 10 16 0.00 0.00
8:50 pm 20:50 Mostly Cloudy 81 27 75 24 84 84 SE 5 7 30.06 1018 10 16 0.00 0.00
9:50 pm 21:50 Mostly Cloudy 81 27 75 24 84 84 ESE 6 9 30.06 1018 10 16 0.00 0.00
10:15 pm 22:15 Mostly Cloudy with Light Rain 79 26.1 76 24.3 90 90 E 6 9 30.06 1018 10 16 0.00 0.00
10:35 pm 22:35 Mostly Cloudy 79 26.2 75 23.9 87 87 S 5 7 30.06 1018 10 16 0.00 0.00
10:55 pm 22:55 Partly Cloudy 80 26.8 75 23.7 83 83 SSW 7 11 30.06 1018 10 16 0.00 0.00
11:15 pm 23:15 Partly Cloudy 78 25.7 75 23.8 89 89 SSE 5 7 30.06 1018 10 16 0.00 0.00
11:35 pm 23:35 Mostly Cloudy 78 25.6 75 23.9 90 90 SSE 3 6 30.06 1018 10 16 0.00 0.00
11:55 pm 23:55 Mostly Cloudy 78 25.5 75 23.8 90 90 SSE 5 7 30.06 1018 10 16 0.00 0.00

Powered by AerisWeather